Regional Weather Roundup
Issued by NWS

Home | Current Version | Previous Version | Text Only | Print | Product List | Glossary On
Versions: 1 2 3 4 5 6 7 8 9 10 11 12 13 14 15 16 17 18 19 20 21 22 23 24 25 26 27 28 29 30 31 32 33 34 35 36 37 38 39 40 41 42 43 44 45 46 47 48 49 50
000
ASUS43 KLSX 250707
RWRMO

WEATHER SUMMARY FOR MISSOURI
NATIONAL WEATHER SERVICE SPRINGFIELD MO
200 AM CDT FRI JUL 25 2014

NOTE: "FAIR" INDICATES FEW OR NO CLOUDS BELOW 12,000 FEET WITH NO
       SIGNIFICANT WEATHER AND/OR OBSTRUCTIONS TO VISIBILITY.
       CURRENT SKY AND/OR WEATHER CONDITIONS ARE NOT AVAILABLE FOR
       CHILLICOTHE AND FARMINGTON.

MOZ001>031-035>038-043-044-053-054-250800-
...NORTHERN AND WESTERN MISSOURI...

CITY           SKY/WX    TMP DP  RH WIND       PRES   REMARKS
KANSAS CTY INT PTCLDY    71  58  63 S13       29.94F
KANSAS C DTWN  PTCLDY    74  58  57 S10       29.94F
LEE`S SUMMIT   CLEAR     70  58  65 S12       29.96F
ST JOSEPH      MOCLDY    69  61  75 S9        29.90F
CHILLICOTHE      N/A     68  58  70 S8        29.96F
KIRKSVILLE     CLEAR     63  56  78 SE12      29.99F

$$
MOZ066>068-077>081-088>096-101>105-250800-
...SOUTHWEST MISSOURI...

CITY           SKY/WX    TMP DP  RH WIND       PRES   REMARKS
SPRINGFIELD    CLEAR     68  58  70 S9        30.03F
JOPLIN         CLEAR     71  61  70 S8        30.00F

$$
MOZ032>034-039>042-045>050-055>058-069>072-250800-
...CENTRAL MISSOURI...

CITY           SKY/WX    TMP DP  RH WIND       PRES   REMARKS
COLUMBIA       CLEAR     63  55  75 SE7       30.02S
JEFFERSON CITY CLEAR     65  54  67 E6        30.02S
ROLLA          CLEAR     63  54  72 SE8       30.03S
SEDALIA        CLEAR     64  56  75 SE8       29.99F
OSAGE BEACH    CLEAR     64  54  68 CALM      30.02S

$$
MOZ051-052-059>065-250800-
...EAST CENTRAL MISSOURI...

CITY           SKY/WX    TMP DP  RH WIND       PRES   REMARKS
ST LOUIS INTL  PTCLDY    67  55  65 E3        30.05R
SPIRIT OF STL  CLEAR     58  54  86 CALM      30.03R
ST CHARLES     CLEAR     63  56  78 NE3       30.04R

$$
MOZ072>076-082>087-097>100-106>115-250800-
...SOUTH CENTRAL AND SOUTHEAST MISSOURI...

CITY           SKY/WX    TMP DP  RH WIND       PRES   REMARKS
CAPE GIRARDEAU CLEAR     60  59  96 CALM      30.04R
FARMINGTON     CLEAR     57  55  94 CALM      30.06F
POPLAR BLUFF   CLEAR     61  58  90 CALM      30.03S
WEST PLAINS    CLEAR     63  55  75 S3        30.07S

$$


USA.gov is the U.S. government's official web portal to all federal, state and local government web resources and services.